LEGION 1

Last updated on Mon Sep 21 2026 00:02:46 GMT+0000 (Coordinated Universal Time)

1 59625U 24081A 26263.54418027 .00002186 00000+0 11323-3 0 9991 2 59625 97.4947 340.3824 0010184 44.6151 315.5900 15.17222027131993
UTC large
Height (km)
Speed (km/s)
/
Latitude / Longitude
Inclination (degrees)
Orbital Period (minutes)
Azimuth
Elevation
Range (km)
Doppler Factor

Next 0 passes for location: London (51.5072 / 0.1276)

No passes found over London.
LEGION 1